カタログに戻る

SITRO-AIS-20

運用中通信SSO
NORAD 61758·PAYLOAD·🇷🇺 Russia
この衛星名は、まだ公式ソースで確認されていません。

打ち上げ Nov 4, 2024 から Vostochny Cosmodrome

Loading…

次のパス (今後24時間)

TLE

最新Source: Space-Track

元期: Sep 14, 2026, 20:52 UTC

1 61758U 24199Z   26257.86987697  .00001981  00000-0  17088-3 0  9990
2 61758  97.3181  91.9017 0006919 120.4244 239.7664 14.98317363148563

AllMySatでSITRO-AIS-20をリアルタイム追跡

Download on the App Store